Regional Weather Roundup
Issued by NWS

Home | Current Version | Previous Version | Graphics & Text | Print | Product List | Glossary On
Versions: 1 2 3 4 5 6 7 8 9 10 11 12 13 14 15 16 17 18 19 20 21 22 23 24 25 26 27 28 29 30 31 32 33 34 35 36 37 38 39 40 41 42 43 44 45 46 47 48 49 50
000
ASUS43 KIND 290009
RWRIN

WEATHER ROUNDUP FOR INDIANA
NATIONAL WEATHER SERVICE INDIANAPOLIS IN
800 PM EDT THU JUL 28 2016

NOTE: "FAIR" INDICATES FEW OR NO CLOUDS BELOW 12,000 FEET WITH NO
SIGNIFICANT WEATHER AND/OR OBSTRUCTIONS TO VISIBILITY.

* - STATION DOES NOT REPORT WEATHER SUCH AS PRECIPITATION OR FOG.

+ - STATION NOT QUALITY CONTROLLED BY THE NATIONAL WEATHER SERVICE.
    USE DATA WITH CAUTION...ESPECIALLY DEWPOINT AND RELATIVE
    HUMIDITY OBSERVATIONS.

INZ001>003-010>013-019-020-290100-
NORTHWEST INDIANA

CITY           SKY/WX    TMP DP  RH WIND       PRES   REMARKS
GARY /AIRPORT/ PTSUNNY   77  75  94 N6        29.90R
KNOX *+        CLOUDY    73  59  60 NE5       29.88F
LA PORTE +     CLOUDY    74  68  80 CALM      29.90S
6HR MIN TEMP:  74; 6HR MAX TEMP:  88;

MICHIGAN CITY+ CLOUDY    75  66  73 CALM      29.90R
MONTICELLO +   CLOUDY    83  67  58 CALM      29.87S
6HR MIN TEMP:  81; 6HR MAX TEMP:  85;

RENSSELAER +   MOSUNNY   79  72  78 N7        29.88S
VALPARAISO     CLOUDY    79  71  76 N5        29.89S
6HR MIN TEMP:  76; 6HR MAX TEMP:  87;


$$

LMZ046-743>745-290100-
SOUTHERN LAKE MICHIGAN

STATION/POSITION TIME  TEMP    WIND        PRES    WAVE
                       AIR SEA DIR/SP/G            HT
                 (UTC) (F)     (DEG/KT/KT) (MB)    (FT)
BURNS HARBOR     2300   76      50/  9/ 16 1012.2F
MICHIGAN CITY    2300   77      60/  8/ 10   N/A
5NW MICH CITY    0000   78 76   80/  4/  6   N/A     1

$$

INZ004-005-014>016-021>024-290100-
NORTH CENTRAL INDIANA

CITY           SKY/WX    TMP DP  RH WIND       PRES   REMARKS
ELKHART        LGT RAIN  70  66  88 MISG      29.92F
GOSHEN         CLOUDY    72  66  81 N10       29.90S
6HR MIN TEMP:  71; 6HR MAX TEMP:  89;

LOGANSPORT +   MOSUNNY   81  70  69 SW3       29.88S
ROCHESTER +    CLOUDY    79  70  73 N8G16     29.88F
SOUTH BEND     CLOUDY    70  67  90 E7        29.89F
WARSAW +       RAIN      77  68  73 E5        29.90R

$$

INZ006>009-017-018-025>027-290100-
NORTHEAST INDIANA

CITY           SKY/WX    TMP DP  RH WIND       PRES   REMARKS
ANGOLA *+      PTCLDY    82  75  78 NE3       29.90S
AUBURN +       PTCLDY    81  63  54 CALM      29.90R
FORT WAYNE     CLOUDY    79  70  74 N3        29.88S
6HR MIN TEMP:  78; 6HR MAX TEMP:  89; 6HR PCP: TRACE;

HUNTINGTON +   CLEAR     79  68  69 NE3       29.88S
6HR MIN TEMP:  78; 6HR MAX TEMP:  85;


$$

INZ028-029-035-036-043>045-051>053-290100-
WEST CENTRAL INDIANA

CITY           SKY/WX    TMP DP  RH WIND       PRES   REMARKS
CRAWFORDSVL +  PTSUNNY   79  73  82 CALM      29.89S
6HR MIN TEMP:  78; 6HR MAX TEMP:  84;

GREENCASTLE +  PTSUNNY   70  70 100 W3        29.89F FOG
LAFAYETTE      CLOUDY    83  70  64 CALM      29.87R
6HR MIN TEMP:  80; 6HR MAX TEMP:  86;

TERRE HAUTE    CLOUDY    77  68  73 SE15      29.87F THUNDER
6HR MIN TEMP:  77; 6HR MAX TEMP:  87; 6HR PCP:  0.07;


$$

INZ030>032-037>040-046>048-054>057-064-065-290100-
CENTRAL INDIANA

CITY           SKY/WX    TMP DP  RH WIND       PRES   REMARKS
COLUMBUS       CLOUDY    77  73  88 CALM      29.89S
INDIANAPOLIS   PTSUNNY   81  70  69 SW10      29.89R
6HR MIN TEMP:  81; 6HR MAX TEMP:  88;

-EAGLE CREEK   MOSUNNY   84  67  56 N3        29.88R
6HR MIN TEMP:  84; 6HR MAX TEMP:  88;

KOKOMO *+      SUNNY     82  66  57 W3        29.88S
6HR MIN TEMP:  82; 6HR MAX TEMP:  90;

MARION +       SUNNY     79  69  70 W5        29.89S HAZE
MT COMFORT *+  PTSUNNY   77  72  83 S8        29.90R
SHELBYVILLE    TSTM      75  70  84 W16G23    29.90R
6HR MIN TEMP:  75; 6HR MAX TEMP:  87; 6HR PCP:  0.06;

ZIONSVILLE +   SUNNY     78  70  76 CALM      29.89F
6HR MIN TEMP:  78; 6HR MAX TEMP:  82;


$$

INZ033-034-041-042-049-050-058-059-290100-
EAST CENTRAL INDIANA

CITY           SKY/WX    TMP DP  RH WIND       PRES   REMARKS
MUNCIE         CLEAR     83  68  60 NW5       29.88S
6HR MIN TEMP:  83; 6HR MAX TEMP:  89;


$$

INZ060-061-067>069-081>083-085>088-290100-
SOUTHWEST INDIANA

CITY           SKY/WX    TMP DP  RH WIND       PRES   REMARKS
EVANSVILLE     CLOUDY    84  74  71 SW3       29.88S
6HR MIN TEMP:  82; 6HR MAX TEMP:  86;

HUNTINGBURG *+ CLOUDY    82  73  74 SW5       29.88F
6HR MIN TEMP:  79; 6HR MAX TEMP:  84;

WASHINGTON +   DRIZZLE   75  75 100 MISG      29.88F
6HR MIN TEMP:  75; 6HR MAX TEMP:  85; 6HR PCP:  0.01;


$$

INZ062-063-066-070>080-084-089>092-290100-
SOUTH CENTRAL AND SOUTHEAST INDIANA

CITY           SKY/WX    TMP DP  RH WIND       PRES   REMARKS
BLOOMINGTON    CLOUDY    75  68  78 SW3       29.89F
6HR MIN TEMP:  72; 6HR MAX TEMP:  85; 6HR PCP:  0.31;

MADISON *+     CLOUDY    77  72  83 W8        29.92R
SEYMOUR +      CLOUDY    77  73  88 S5        29.89F

$$





USA.gov is the U.S. government's official web portal to all federal, state and local government web resources and services.